Year,Month,Day,Hour,Minute,Value (Times are PST for temperature in C)
2009,05,27,00,00,10.00
2009,05,27,00,01,9.90
2009,05,27,00,02,9.90
2009,05,27,00,03,9.90
2009,05,27,00,04,9.90
2009,05,27,00,05,9.80
2009,05,27,00,06,9.80
2009,05,27,00,07,9.80
2009,05,27,00,08,9.80
2009,05,27,00,09,9.80
2009,05,27,00,10,9.80
2009,05,27,00,11,9.80
2009,05,27,00,12,9.70
2009,05,27,00,13,9.70
2009,05,27,00,14,9.70
2009,05,27,00,15,9.70
2009,05,27,00,16,9.70
2009,05,27,00,17,9.60
2009,05,27,00,18,9.60
2009,05,27,00,19,9.60
2009,05,27,00,20,9.60
2009,05,27,00,21,9.60
2009,05,27,00,22,9.60
2009,05,27,00,23,9.60
2009,05,27,00,24,9.60
2009,05,27,00,25,9.60
2009,05,27,00,26,9.60
2009,05,27,00,27,9.60
2009,05,27,00,28,9.60
2009,05,27,00,29,9.60
2009,05,27,00,30,9.60
2009,05,27,00,31,9.60
2009,05,27,00,32,9.60
2009,05,27,00,33,9.60
2009,05,27,00,34,9.60
2009,05,27,00,35,9.60
2009,05,27,00,36,9.60
2009,05,27,00,37,9.60
2009,05,27,00,38,9.60
2009,05,27,00,39,9.60
2009,05,27,00,40,9.60
2009,05,27,00,41,9.60
2009,05,27,00,42,9.60
2009,05,27,00,43,9.60
2009,05,27,00,44,9.60
2009,05,27,00,45,9.50
2009,05,27,00,46,9.50
2009,05,27,00,47,9.50
2009,05,27,00,48,9.40
2009,05,27,00,49,9.40
2009,05,27,00,50,9.40
2009,05,27,00,51,9.30
2009,05,27,00,52,9.30
2009,05,27,00,53,9.30
2009,05,27,00,54,9.30
2009,05,27,00,55,9.30
2009,05,27,00,56,9.30
2009,05,27,00,57,9.30
2009,05,27,00,58,9.20
2009,05,27,00,59,9.20
2009,05,27,01,00,9.20
2009,05,27,01,01,9.20
2009,05,27,01,02,9.20
2009,05,27,01,03,9.20
2009,05,27,01,04,9.20
2009,05,27,01,05,9.20
2009,05,27,01,06,9.20
2009,05,27,01,07,9.20
2009,05,27,01,08,9.20
2009,05,27,01,09,9.10
2009,05,27,01,10,9.10
2009,05,27,01,11,9.10
2009,05,27,01,12,9.10
2009,05,27,01,13,9.10
2009,05,27,01,14,9.10
2009,05,27,01,15,9.00
2009,05,27,01,16,9.00
2009,05,27,01,17,9.00
2009,05,27,01,18,9.00
2009,05,27,01,19,9.00
2009,05,27,01,20,9.00
2009,05,27,01,21,8.90
2009,05,27,01,22,8.90
2009,05,27,01,23,8.90
2009,05,27,01,24,8.90
2009,05,27,01,25,8.90
2009,05,27,01,26,8.80
2009,05,27,01,27,8.80
2009,05,27,01,28,8.80
2009,05,27,01,29,8.70
2009,05,27,01,30,8.70
2009,05,27,01,31,8.70
2009,05,27,01,32,8.60
2009,05,27,01,33,8.60
2009,05,27,01,34,8.60
2009,05,27,01,35,8.50
2009,05,27,01,36,8.50
2009,05,27,01,37,8.50
2009,05,27,01,38,8.40
2009,05,27,01,39,8.40
2009,05,27,01,40,8.40
2009,05,27,01,41,8.40
2009,05,27,01,42,8.40
2009,05,27,01,43,8.30
2009,05,27,01,44,8.30
2009,05,27,01,45,8.30
2009,05,27,01,46,8.30
2009,05,27,01,47,8.30
2009,05,27,01,48,8.30
2009,05,27,01,49,8.30
2009,05,27,01,50,8.30
2009,05,27,01,51,8.30
2009,05,27,01,52,8.20
2009,05,27,01,53,8.20
2009,05,27,01,54,8.20
2009,05,27,01,55,8.20
2009,05,27,01,56,8.10
2009,05,27,01,57,8.10
2009,05,27,01,58,8.10
2009,05,27,01,59,8.10
2009,05,27,02,00,8.10
2009,05,27,02,01,8.10
2009,05,27,02,02,8.10
2009,05,27,02,03,8.00
2009,05,27,02,04,8.00
2009,05,27,02,05,8.00
2009,05,27,02,06,8.00
2009,05,27,02,07,7.90
2009,05,27,02,08,7.90
2009,05,27,02,09,7.90
2009,05,27,02,10,7.90
2009,05,27,02,11,7.90
2009,05,27,02,12,7.90
2009,05,27,02,13,7.90
2009,05,27,02,14,7.90
2009,05,27,02,15,7.90
2009,05,27,02,16,7.90
2009,05,27,02,17,7.90
2009,05,27,02,18,7.90
2009,05,27,02,19,7.90
2009,05,27,02,20,7.90
2009,05,27,02,21,7.90
2009,05,27,02,22,7.90
2009,05,27,02,23,7.90
2009,05,27,02,24,7.80
2009,05,27,02,25,7.80
2009,05,27,02,26,7.80
2009,05,27,02,27,7.80
2009,05,27,02,28,7.80
2009,05,27,02,29,7.80
2009,05,27,02,30,7.80
2009,05,27,02,31,7.80
2009,05,27,02,32,7.80
2009,05,27,02,33,7.80
2009,05,27,02,34,7.80
2009,05,27,02,35,7.80
2009,05,27,02,36,7.80
2009,05,27,02,37,7.80
2009,05,27,02,38,7.80
2009,05,27,02,39,7.80
2009,05,27,02,40,7.80
2009,05,27,02,41,7.80
2009,05,27,02,42,7.80
2009,05,27,02,43,7.80
2009,05,27,02,44,7.80
2009,05,27,02,45,7.80
2009,05,27,02,46,7.80
2009,05,27,02,47,7.80
2009,05,27,02,48,7.80
2009,05,27,02,49,7.80
2009,05,27,02,50,7.80
2009,05,27,02,51,7.80
2009,05,27,02,52,7.80
2009,05,27,02,53,7.80
2009,05,27,02,54,7.80
2009,05,27,02,55,7.80
2009,05,27,02,56,7.80
2009,05,27,02,57,7.80
2009,05,27,02,58,7.70
2009,05,27,02,59,7.70
2009,05,27,03,00,7.70
2009,05,27,03,01,7.70
2009,05,27,03,02,7.60
2009,05,27,03,03,7.60
2009,05,27,03,04,7.60
2009,05,27,03,05,7.60
2009,05,27,03,06,7.60
2009,05,27,03,07,7.60
2009,05,27,03,08,7.60
2009,05,27,03,09,7.60
2009,05,27,03,10,7.60
2009,05,27,03,11,7.60
2009,05,27,03,12,7.60
2009,05,27,03,13,7.60
2009,05,27,03,14,7.50
2009,05,27,03,15,7.50
2009,05,27,03,16,7.50
2009,05,27,03,17,7.40
2009,05,27,03,18,7.40
2009,05,27,03,19,7.40
2009,05,27,03,20,7.40
2009,05,27,03,21,7.40
2009,05,27,03,22,7.30
2009,05,27,03,23,7.30
2009,05,27,03,24,7.30
2009,05,27,03,25,7.30
2009,05,27,03,26,7.30
2009,05,27,03,27,7.40
2009,05,27,03,28,7.40
2009,05,27,03,29,7.50
2009,05,27,03,30,7.60
2009,05,27,03,31,7.60
2009,05,27,03,32,7.70
2009,05,27,03,33,7.70
2009,05,27,03,34,7.80
2009,05,27,03,35,7.80
2009,05,27,03,36,7.80
2009,05,27,03,37,7.80
2009,05,27,03,38,7.80
2009,05,27,03,39,7.80
2009,05,27,03,40,7.80
2009,05,27,03,41,7.80
2009,05,27,03,42,7.70
2009,05,27,03,43,7.70
2009,05,27,03,44,7.70
2009,05,27,03,45,7.70
2009,05,27,03,46,7.70
2009,05,27,03,47,7.70
2009,05,27,03,48,7.70
2009,05,27,03,49,7.70
2009,05,27,03,50,7.70
2009,05,27,03,51,7.70
2009,05,27,03,52,7.70
2009,05,27,03,53,7.70
2009,05,27,03,54,7.70
2009,05,27,03,55,7.70
2009,05,27,03,56,7.70
2009,05,27,03,57,7.60
2009,05,27,03,58,7.60
2009,05,27,03,59,7.60
2009,05,27,04,00,7.60
2009,05,27,04,01,7.60
2009,05,27,04,02,7.60
2009,05,27,04,03,7.60
2009,05,27,04,05,7.50
2009,05,27,04,06,7.50
2009,05,27,04,07,7.40
2009,05,27,04,08,7.40
2009,05,27,04,09,7.40
2009,05,27,04,10,7.40
2009,05,27,04,11,7.40
2009,05,27,04,12,7.40
2009,05,27,04,13,7.40
2009,05,27,04,14,7.40
2009,05,27,04,15,7.40
2009,05,27,04,16,7.40
2009,05,27,04,17,7.30
2009,05,27,04,18,7.30
2009,05,27,04,19,7.20
2009,05,27,04,20,7.20
2009,05,27,04,21,7.20
2009,05,27,04,22,7.20
2009,05,27,04,23,7.10
2009,05,27,04,24,7.10
2009,05,27,04,25,7.10
2009,05,27,04,26,7.00
2009,05,27,04,27,6.90
2009,05,27,04,28,6.90
2009,05,27,04,29,6.80
2009,05,27,04,30,6.80
2009,05,27,04,31,6.80
2009,05,27,04,32,6.70
2009,05,27,04,33,6.70
2009,05,27,04,34,6.70
2009,05,27,04,35,6.70
2009,05,27,04,36,6.70
2009,05,27,04,37,6.70
2009,05,27,04,38,6.70
2009,05,27,04,39,6.70
2009,05,27,04,40,6.70
2009,05,27,04,41,6.70
2009,05,27,04,42,6.60
2009,05,27,04,43,6.60
2009,05,27,04,44,6.60
2009,05,27,04,45,6.60
2009,05,27,04,46,6.60
2009,05,27,04,47,6.60
2009,05,27,04,48,6.70
2009,05,27,04,49,6.60
2009,05,27,04,50,6.60
2009,05,27,04,51,6.60
2009,05,27,04,52,6.60
2009,05,27,04,53,6.70
2009,05,27,04,54,6.60
2009,05,27,04,55,6.60
2009,05,27,04,56,6.60
2009,05,27,04,57,6.60
2009,05,27,04,58,6.60
2009,05,27,04,59,6.60
2009,05,27,05,00,6.60
2009,05,27,05,01,6.70
2009,05,27,05,02,6.70
2009,05,27,05,03,6.70
2009,05,27,05,04,6.70
2009,05,27,05,05,6.70
2009,05,27,05,06,6.70
2009,05,27,05,07,6.70
2009,05,27,05,08,6.70
2009,05,27,05,09,6.70
2009,05,27,05,10,6.70
2009,05,27,05,11,6.70
2009,05,27,05,12,6.70
2009,05,27,05,13,6.70
2009,05,27,05,14,6.60
2009,05,27,05,15,6.60
2009,05,27,05,16,6.60
2009,05,27,05,17,6.60
2009,05,27,05,18,6.50
2009,05,27,05,19,6.50
2009,05,27,05,20,6.50
2009,05,27,05,21,6.60
2009,05,27,05,22,6.60
2009,05,27,05,23,6.60
2009,05,27,05,24,6.60
2009,05,27,05,25,6.60
2009,05,27,05,26,6.60
2009,05,27,05,27,6.60
2009,05,27,05,28,6.60
2009,05,27,05,29,6.60
2009,05,27,05,30,6.60
2009,05,27,05,31,6.60
2009,05,27,05,32,6.60
2009,05,27,05,33,6.60
2009,05,27,05,34,6.60
2009,05,27,05,35,6.60
2009,05,27,05,36,6.60
2009,05,27,05,37,6.60
2009,05,27,05,38,6.60
2009,05,27,05,39,6.50
2009,05,27,05,40,6.50
2009,05,27,05,41,6.50
2009,05,27,05,42,6.50
2009,05,27,05,43,6.40
2009,05,27,05,44,6.40
2009,05,27,05,45,6.40
2009,05,27,05,46,6.30
2009,05,27,05,47,6.30
2009,05,27,05,48,6.30
2009,05,27,05,49,6.30
2009,05,27,05,50,6.20
2009,05,27,05,51,6.20
2009,05,27,05,52,6.20
2009,05,27,05,53,6.30
2009,05,27,05,54,6.30
2009,05,27,05,55,6.30
2009,05,27,05,56,6.30
2009,05,27,05,57,6.30
2009,05,27,05,58,6.30
2009,05,27,05,59,6.30
2009,05,27,06,00,6.30
2009,05,27,06,01,6.30
2009,05,27,06,02,6.30
2009,05,27,06,03,6.30
2009,05,27,06,04,6.30
2009,05,27,06,05,6.20
2009,05,27,06,06,6.20
2009,05,27,06,07,6.20
2009,05,27,06,08,6.20
2009,05,27,06,09,6.20
2009,05,27,06,10,6.20
2009,05,27,06,11,6.20
2009,05,27,06,12,6.20
2009,05,27,06,13,6.10
2009,05,27,06,14,6.10
2009,05,27,06,15,6.10
2009,05,27,06,16,6.10
2009,05,27,06,17,6.10
2009,05,27,06,18,6.10
2009,05,27,06,19,6.10
2009,05,27,06,20,6.10
2009,05,27,06,21,6.10
2009,05,27,06,22,6.00
2009,05,27,06,23,6.00
2009,05,27,06,24,6.00
2009,05,27,06,25,6.00
2009,05,27,06,26,6.00
2009,05,27,06,27,6.00
2009,05,27,06,28,6.10
2009,05,27,06,29,6.00
2009,05,27,06,30,6.00
2009,05,27,06,31,6.10
2009,05,27,06,32,6.10
2009,05,27,06,33,6.10
2009,05,27,06,34,6.10
2009,05,27,06,35,6.20
2009,05,27,06,36,6.20
2009,05,27,06,37,6.30
2009,05,27,06,38,6.30
2009,05,27,06,39,6.30
2009,05,27,06,40,6.40
2009,05,27,06,41,6.40
2009,05,27,06,42,6.50
2009,05,27,06,43,6.60
2009,05,27,06,44,6.70
2009,05,27,06,45,6.80
2009,05,27,06,46,6.90
2009,05,27,06,47,7.00
2009,05,27,06,48,7.10
2009,05,27,06,49,7.20
2009,05,27,06,50,7.30
2009,05,27,06,51,7.40
2009,05,27,06,52,7.50
2009,05,27,06,53,7.70
2009,05,27,06,54,7.80
2009,05,27,06,55,7.90
2009,05,27,06,56,8.10
2009,05,27,06,57,8.20
2009,05,27,06,58,8.30
2009,05,27,06,59,8.40
2009,05,27,07,00,8.50
2009,05,27,07,01,8.60
2009,05,27,07,02,8.70
2009,05,27,07,03,8.80
2009,05,27,07,04,8.90
2009,05,27,07,05,9.00
2009,05,27,07,06,9.10
2009,05,27,07,07,9.10
2009,05,27,07,08,9.20
2009,05,27,07,09,9.20
2009,05,27,07,10,9.30
2009,05,27,07,11,9.30
2009,05,27,07,12,9.30
2009,05,27,07,13,9.40
2009,05,27,07,14,9.50
2009,05,27,07,15,9.60
2009,05,27,07,16,9.60
2009,05,27,07,17,9.70
2009,05,27,07,18,9.80
2009,05,27,07,19,9.80
2009,05,27,07,20,9.80
2009,05,27,07,21,9.80
2009,05,27,07,22,9.80
2009,05,27,07,23,9.80
2009,05,27,07,24,9.90
2009,05,27,07,25,10.00
2009,05,27,07,26,10.00
2009,05,27,07,27,10.10
2009,05,27,07,28,10.20
2009,05,27,07,29,10.20
2009,05,27,07,30,10.30
2009,05,27,07,31,10.30
2009,05,27,07,32,10.40
2009,05,27,07,33,10.40
2009,05,27,07,34,10.40
2009,05,27,07,35,10.40
2009,05,27,07,36,10.50
2009,05,27,07,37,10.50
2009,05,27,07,38,10.50
2009,05,27,07,39,10.60
2009,05,27,07,40,10.60
2009,05,27,07,41,10.60
2009,05,27,07,42,10.70
2009,05,27,07,43,10.80
2009,05,27,07,44,10.90
2009,05,27,07,45,10.90
2009,05,27,07,46,11.00
2009,05,27,07,47,11.10
2009,05,27,07,48,11.10
2009,05,27,07,49,11.10
2009,05,27,07,50,11.20
2009,05,27,07,51,11.20
2009,05,27,07,52,11.20
2009,05,27,07,53,11.20
2009,05,27,07,54,11.10
2009,05,27,07,55,11.00
2009,05,27,07,56,10.90
2009,05,27,07,57,10.80
2009,05,27,07,58,10.80
2009,05,27,07,59,10.70
2009,05,27,08,00,10.70
2009,05,27,08,01,10.80
2009,05,27,08,02,10.80
2009,05,27,08,03,10.90
2009,05,27,08,04,10.90
2009,05,27,08,05,10.90
2009,05,27,08,06,11.00
2009,05,27,08,07,11.10
2009,05,27,08,08,11.10
2009,05,27,08,09,11.20
2009,05,27,08,10,11.20
2009,05,27,08,11,11.20
2009,05,27,08,12,11.30
2009,05,27,08,13,11.30
2009,05,27,08,14,11.40
2009,05,27,08,15,11.50
2009,05,27,08,16,11.60
2009,05,27,08,17,11.60
2009,05,27,08,18,11.70
2009,05,27,08,19,11.70
2009,05,27,08,20,11.70
2009,05,27,08,21,11.80
2009,05,27,08,22,11.70
2009,05,27,08,23,11.80
2009,05,27,08,24,11.80
2009,05,27,08,25,11.80
2009,05,27,08,26,11.90
2009,05,27,08,27,11.90
2009,05,27,08,28,12.00
2009,05,27,08,29,12.10
2009,05,27,08,30,12.10
2009,05,27,08,31,12.10
2009,05,27,08,32,12.20
2009,05,27,08,33,12.20
2009,05,27,08,34,12.30
2009,05,27,08,35,12.30
2009,05,27,08,36,12.40
2009,05,27,08,37,12.40
2009,05,27,08,38,12.50
2009,05,27,08,39,12.40
2009,05,27,08,40,12.40
2009,05,27,08,41,12.40
2009,05,27,08,42,12.40
2009,05,27,08,43,12.40
2009,05,27,08,44,12.40
2009,05,27,08,45,12.40
2009,05,27,08,46,12.40
2009,05,27,08,47,12.40
2009,05,27,08,48,12.40
2009,05,27,08,49,12.40
2009,05,27,08,50,12.40
2009,05,27,08,51,12.30
2009,05,27,08,52,12.30
2009,05,27,08,53,12.30
2009,05,27,08,54,12.30
2009,05,27,08,55,12.40
2009,05,27,08,56,12.50
2009,05,27,08,57,12.40
2009,05,27,08,58,12.40
2009,05,27,08,59,12.50
2009,05,27,09,00,12.50
2009,05,27,09,01,12.60
2009,05,27,09,02,12.60
2009,05,27,09,03,12.60
2009,05,27,09,04,12.60
2009,05,27,09,05,12.70
2009,05,27,09,06,12.70
2009,05,27,09,07,12.80
2009,05,27,09,08,12.80
2009,05,27,09,09,12.80
2009,05,27,09,10,12.90
2009,05,27,09,11,13.00
2009,05,27,09,12,13.00
2009,05,27,09,13,13.10
2009,05,27,09,14,13.10
2009,05,27,09,15,13.00
2009,05,27,09,16,12.90
2009,05,27,09,17,12.90
2009,05,27,09,18,13.00
2009,05,27,09,19,13.10
2009,05,27,09,20,13.20
2009,05,27,09,21,13.30
2009,05,27,09,22,13.30
2009,05,27,09,23,13.40
2009,05,27,09,24,13.40
2009,05,27,09,25,13.50
2009,05,27,09,26,13.50
2009,05,27,09,27,13.50
2009,05,27,09,28,13.40
2009,05,27,09,29,13.40
2009,05,27,09,30,13.30
2009,05,27,09,31,13.20
2009,05,27,09,32,13.20
2009,05,27,09,33,13.10
2009,05,27,09,34,13.20
2009,05,27,09,35,13.20
2009,05,27,09,36,13.30
2009,05,27,09,37,13.40
2009,05,27,09,38,13.40
2009,05,27,09,39,13.40
2009,05,27,09,40,13.50
2009,05,27,09,41,13.60
2009,05,27,09,42,13.70
2009,05,27,09,43,13.80
2009,05,27,09,44,13.80
2009,05,27,09,45,13.80
2009,05,27,09,46,13.80
2009,05,27,09,47,13.80
2009,05,27,09,48,13.80
2009,05,27,09,49,13.80
2009,05,27,09,50,13.80
2009,05,27,09,51,13.80
2009,05,27,09,52,13.80
2009,05,27,09,53,13.80
2009,05,27,09,54,13.80
2009,05,27,09,55,13.80
2009,05,27,09,56,14.00
2009,05,27,09,57,14.10
2009,05,27,09,58,14.20
2009,05,27,09,59,14.20
2009,05,27,10,00,14.20
2009,05,27,10,01,14.20
2009,05,27,10,02,14.20
2009,05,27,10,03,14.20
2009,05,27,10,04,14.20
2009,05,27,10,05,14.20
2009,05,27,10,06,14.20
2009,05,27,10,07,14.30
2009,05,27,10,08,14.30
2009,05,27,10,09,14.20
2009,05,27,10,10,14.10
2009,05,27,10,11,14.10
2009,05,27,10,12,14.10
2009,05,27,10,13,14.20
2009,05,27,10,14,14.20
2009,05,27,10,15,14.20
2009,05,27,10,16,14.20
2009,05,27,10,17,14.20
2009,05,27,10,18,14.30
2009,05,27,10,19,14.40
2009,05,27,10,20,14.40
2009,05,27,10,21,14.50
2009,05,27,10,22,14.50
2009,05,27,10,23,14.50
2009,05,27,10,24,14.50
2009,05,27,10,25,14.50
2009,05,27,10,26,14.40
2009,05,27,10,27,14.50
2009,05,27,10,28,14.60
2009,05,27,10,29,14.80
2009,05,27,10,30,14.90
2009,05,27,10,31,15.00
2009,05,27,10,32,15.00
2009,05,27,10,33,15.00
2009,05,27,10,34,15.00
2009,05,27,10,35,15.00
2009,05,27,10,36,15.00
2009,05,27,10,37,15.10
2009,05,27,10,38,15.20
2009,05,27,10,39,15.20
2009,05,27,10,40,15.30
2009,05,27,10,41,15.30
2009,05,27,10,42,15.30
2009,05,27,10,43,15.40
2009,05,27,10,44,15.40
2009,05,27,10,45,15.40
2009,05,27,10,46,15.40
2009,05,27,10,47,15.40
2009,05,27,10,48,15.40
2009,05,27,10,49,15.40
2009,05,27,10,50,15.40
2009,05,27,10,51,15.50
2009,05,27,10,52,15.40
2009,05,27,10,53,15.30
2009,05,27,10,54,15.30
2009,05,27,10,55,15.30
2009,05,27,10,56,15.10
2009,05,27,10,57,15.10
2009,05,27,10,58,15.20
2009,05,27,10,59,15.20
2009,05,27,11,00,15.30
2009,05,27,11,01,15.30
2009,05,27,11,02,15.30
2009,05,27,11,03,15.40
2009,05,27,11,04,15.40
2009,05,27,11,05,15.40
2009,05,27,11,06,15.30
2009,05,27,11,07,15.40
2009,05,27,11,08,15.50
2009,05,27,11,09,15.50
2009,05,27,11,10,15.40
2009,05,27,11,11,15.20
2009,05,27,11,12,15.00
2009,05,27,11,13,15.00
2009,05,27,11,14,14.90
2009,05,27,11,15,14.70
2009,05,27,11,16,14.60
2009,05,27,11,17,14.50
2009,05,27,11,18,14.50
2009,05,27,11,19,14.50
2009,05,27,11,20,14.60
2009,05,27,11,21,14.60
2009,05,27,11,22,14.60
2009,05,27,11,23,14.60
2009,05,27,11,24,14.60
2009,05,27,11,25,14.60
2009,05,27,11,26,14.60
2009,05,27,11,27,14.60
2009,05,27,11,28,14.70
2009,05,27,11,29,14.70
2009,05,27,11,30,14.80
2009,05,27,11,31,14.90
2009,05,27,11,32,15.00
2009,05,27,11,33,15.00
2009,05,27,11,34,14.90
2009,05,27,11,35,14.80
2009,05,27,11,36,14.80
2009,05,27,11,37,14.80
2009,05,27,11,38,14.80
2009,05,27,11,39,14.80
2009,05,27,11,40,14.70
2009,05,27,11,41,14.70
2009,05,27,11,42,14.70
2009,05,27,11,43,14.70
2009,05,27,11,44,14.70
2009,05,27,11,45,14.70
2009,05,27,11,46,14.80
2009,05,27,11,47,15.00
2009,05,27,11,48,15.10
2009,05,27,11,49,15.30
2009,05,27,11,50,15.50
2009,05,27,11,51,15.60
2009,05,27,11,52,15.70
2009,05,27,11,53,15.80
2009,05,27,11,54,15.80
2009,05,27,11,55,15.80
2009,05,27,11,56,15.80
2009,05,27,11,57,15.70
2009,05,27,11,58,15.60
2009,05,27,11,59,15.60
2009,05,27,12,00,15.70
2009,05,27,12,01,15.80
2009,05,27,12,02,15.90
2009,05,27,12,03,15.90
2009,05,27,12,04,16.00
2009,05,27,12,05,16.00
2009,05,27,12,06,16.10
2009,05,27,12,07,16.10
2009,05,27,12,08,16.10
2009,05,27,12,09,16.20
2009,05,27,12,10,16.20
2009,05,27,12,11,16.30
2009,05,27,12,12,16.30
2009,05,27,12,13,16.40
2009,05,27,12,14,16.40
2009,05,27,12,15,16.40
2009,05,27,12,16,16.40
2009,05,27,12,17,16.30
2009,05,27,12,18,16.40
2009,05,27,12,19,16.40
2009,05,27,12,20,16.50
2009,05,27,12,21,16.60
2009,05,27,12,22,16.60
2009,05,27,12,23,16.50
2009,05,27,12,24,16.40
2009,05,27,12,25,16.30
2009,05,27,12,26,16.30
2009,05,27,12,27,16.20
2009,05,27,12,28,16.20
2009,05,27,12,29,16.20
2009,05,27,12,30,16.10
2009,05,27,12,31,16.10
2009,05,27,12,32,16.10
2009,05,27,12,33,16.20
2009,05,27,12,34,16.20
2009,05,27,12,35,16.20
2009,05,27,12,36,16.10
2009,05,27,12,37,16.00
2009,05,27,12,38,15.90
2009,05,27,12,39,15.90
2009,05,27,12,40,15.90
2009,05,27,12,41,15.90
2009,05,27,12,42,15.90
2009,05,27,12,43,16.00
2009,05,27,12,44,16.10
2009,05,27,12,45,16.30
2009,05,27,12,46,16.40
2009,05,27,12,47,16.40
2009,05,27,12,48,16.40
2009,05,27,12,49,16.40
2009,05,27,12,50,16.50
2009,05,27,12,51,16.50
2009,05,27,12,52,16.40
2009,05,27,12,53,16.30
2009,05,27,12,54,16.30
2009,05,27,12,55,16.40
2009,05,27,12,56,16.50
2009,05,27,12,57,16.60
2009,05,27,12,58,16.70
2009,05,27,12,59,16.80
2009,05,27,13,00,16.80
2009,05,27,13,01,16.90
2009,05,27,13,02,16.80
2009,05,27,13,03,16.80
2009,05,27,13,04,16.80
2009,05,27,13,05,16.70
2009,05,27,13,06,16.60
2009,05,27,13,07,16.60
2009,05,27,13,08,16.60
2009,05,27,13,09,16.60
2009,05,27,13,10,16.60
2009,05,27,13,11,16.70
2009,05,27,13,12,16.70
2009,05,27,13,13,16.80
2009,05,27,13,14,16.80
2009,05,27,13,15,16.80
2009,05,27,13,16,16.80
2009,05,27,13,17,16.80
2009,05,27,13,18,16.70
2009,05,27,13,19,16.60
2009,05,27,13,20,16.50
2009,05,27,13,21,16.30
2009,05,27,13,22,16.20
2009,05,27,13,23,16.10
2009,05,27,13,24,16.00
2009,05,27,13,25,15.90
2009,05,27,13,26,15.90
2009,05,27,13,27,15.90
2009,05,27,13,28,15.90
2009,05,27,13,29,16.00
2009,05,27,13,30,15.90
2009,05,27,13,31,16.00
2009,05,27,13,32,16.00
2009,05,27,13,33,16.00
2009,05,27,13,34,16.00
2009,05,27,13,35,16.10
2009,05,27,13,36,16.10
2009,05,27,13,37,16.10
2009,05,27,13,38,16.10
2009,05,27,13,39,16.00
2009,05,27,13,40,16.00
2009,05,27,13,41,16.00
2009,05,27,13,42,16.00
2009,05,27,13,43,16.10
2009,05,27,13,44,16.10
2009,05,27,13,45,16.10
2009,05,27,13,46,16.00
2009,05,27,13,47,15.90
2009,05,27,13,48,15.90
2009,05,27,13,49,15.90
2009,05,27,13,50,16.00
2009,05,27,13,51,16.00
2009,05,27,13,52,16.00
2009,05,27,13,53,16.00
2009,05,27,13,54,16.10
2009,05,27,13,55,16.10
2009,05,27,13,56,16.20
2009,05,27,13,57,16.20
2009,05,27,13,58,16.30
2009,05,27,13,59,16.30
2009,05,27,14,00,16.30
2009,05,27,14,01,16.30
2009,05,27,14,02,16.30
2009,05,27,14,03,16.40
2009,05,27,14,04,16.50
2009,05,27,14,05,16.40
2009,05,27,14,06,16.50
2009,05,27,14,07,16.50
2009,05,27,14,08,16.50
2009,05,27,14,09,16.50
2009,05,27,14,10,16.50
2009,05,27,14,11,16.60
2009,05,27,14,12,16.60
2009,05,27,14,13,16.50
2009,05,27,14,14,16.40
2009,05,27,14,15,16.40
2009,05,27,14,16,16.40
2009,05,27,14,17,16.40
2009,05,27,14,18,16.40
2009,05,27,14,19,16.30
2009,05,27,14,20,16.30
2009,05,27,14,21,16.30
2009,05,27,14,22,16.30
2009,05,27,14,23,16.30
2009,05,27,14,24,16.40
2009,05,27,14,25,16.40
2009,05,27,14,26,16.40
2009,05,27,14,27,16.50
2009,05,27,14,28,16.50
2009,05,27,14,29,16.50
2009,05,27,14,30,16.60
2009,05,27,14,31,16.60
2009,05,27,14,32,16.60
2009,05,27,14,33,16.50
2009,05,27,14,34,16.50
2009,05,27,14,35,16.50
2009,05,27,14,36,16.50
2009,05,27,14,37,16.50
2009,05,27,14,38,16.50
2009,05,27,14,39,16.40
2009,05,27,14,40,16.40
2009,05,27,14,41,16.40
2009,05,27,14,42,16.30
2009,05,27,14,43,16.30
2009,05,27,14,44,16.30
2009,05,27,14,45,16.30
2009,05,27,14,46,16.30
2009,05,27,14,47,16.30
2009,05,27,14,48,16.40
2009,05,27,14,49,16.40
2009,05,27,14,50,16.50
2009,05,27,14,51,16.50
2009,05,27,14,52,16.50
2009,05,27,14,53,16.60
2009,05,27,14,54,16.60
2009,05,27,14,55,16.80
2009,05,27,14,56,16.90
2009,05,27,14,57,17.00
2009,05,27,14,58,17.00
2009,05,27,14,59,17.00
2009,05,27,15,00,16.90
2009,05,27,15,01,16.90
2009,05,27,15,02,16.80
2009,05,27,15,03,16.70
2009,05,27,15,04,16.70
2009,05,27,15,05,16.70
2009,05,27,15,06,16.80
2009,05,27,15,07,16.80
2009,05,27,15,08,16.90
2009,05,27,15,09,16.70
2009,05,27,15,10,16.60
2009,05,27,15,11,16.60
2009,05,27,15,12,16.60
2009,05,27,15,13,16.70
2009,05,27,15,14,16.70
2009,05,27,15,15,16.70
2009,05,27,15,16,16.70
2009,05,27,15,17,16.70
2009,05,27,15,18,16.80
2009,05,27,15,19,16.90
2009,05,27,15,20,16.80
2009,05,27,15,21,16.80
2009,05,27,15,22,16.80
2009,05,27,15,23,16.80
2009,05,27,15,24,16.80
2009,05,27,15,25,16.80
2009,05,27,15,26,16.80
2009,05,27,15,27,16.80
2009,05,27,15,28,16.90
2009,05,27,15,29,16.90
2009,05,27,15,30,16.90
2009,05,27,15,31,16.80
2009,05,27,15,32,16.80
2009,05,27,15,33,16.80
2009,05,27,15,34,16.80
2009,05,27,15,35,16.90
2009,05,27,15,36,16.90
2009,05,27,15,37,17.00
2009,05,27,15,38,17.00
2009,05,27,15,39,17.00
2009,05,27,15,40,17.10
2009,05,27,15,41,17.10
2009,05,27,15,42,17.10
2009,05,27,15,43,17.20
2009,05,27,15,44,17.20
2009,05,27,15,45,17.20
2009,05,27,15,46,17.10
2009,05,27,15,47,17.10
2009,05,27,15,48,17.10
2009,05,27,15,49,17.00
2009,05,27,15,50,16.90
2009,05,27,15,51,16.90
2009,05,27,15,52,16.80
2009,05,27,15,53,16.80
2009,05,27,15,54,16.80
2009,05,27,15,55,16.80
2009,05,27,15,56,16.80
2009,05,27,15,57,16.70
2009,05,27,15,58,16.70
2009,05,27,15,59,16.70
2009,05,27,16,00,16.60
2009,05,27,16,01,16.60
2009,05,27,16,02,16.70
2009,05,27,16,03,16.60
2009,05,27,16,04,16.60
2009,05,27,16,05,16.60
2009,05,27,16,06,16.60
2009,05,27,16,07,16.70
2009,05,27,16,08,16.80
2009,05,27,16,09,16.70
2009,05,27,16,10,16.70
2009,05,27,16,11,16.70
2009,05,27,16,12,16.70
2009,05,27,16,13,16.60
2009,05,27,16,14,16.70
2009,05,27,16,15,16.70
2009,05,27,16,16,16.80
2009,05,27,16,17,16.80
2009,05,27,16,18,16.80
2009,05,27,16,19,16.80
2009,05,27,16,20,16.70
2009,05,27,16,21,16.70
2009,05,27,16,22,16.80
2009,05,27,16,23,16.80
2009,05,27,16,24,16.90
2009,05,27,16,25,16.90
2009,05,27,16,26,17.00
2009,05,27,16,27,17.00
2009,05,27,16,28,17.00
2009,05,27,16,29,17.10
2009,05,27,16,30,17.10
2009,05,27,16,31,17.20
2009,05,27,16,32,17.10
2009,05,27,16,33,16.90
2009,05,27,16,34,16.90
2009,05,27,16,35,16.80
2009,05,27,16,36,16.80
2009,05,27,16,37,16.80
2009,05,27,16,38,16.90
2009,05,27,16,39,16.90
2009,05,27,16,40,16.80
2009,05,27,16,41,16.70
2009,05,27,16,42,16.70
2009,05,27,16,43,16.60
2009,05,27,16,44,16.70
2009,05,27,16,45,16.70
2009,05,27,16,46,16.70
2009,05,27,16,47,16.70
2009,05,27,16,48,16.70
2009,05,27,16,49,16.60
2009,05,27,16,50,16.60
2009,05,27,16,51,16.50
2009,05,27,16,52,16.50
2009,05,27,16,53,16.40
2009,05,27,16,54,16.50
2009,05,27,16,55,16.60
2009,05,27,16,56,16.60
2009,05,27,16,57,16.60
2009,05,27,16,58,16.50
2009,05,27,16,59,16.50
2009,05,27,17,00,16.40
2009,05,27,17,01,16.50
2009,05,27,17,02,16.60
2009,05,27,17,03,16.60
2009,05,27,17,04,16.70
2009,05,27,17,05,16.70
2009,05,27,17,06,16.70
2009,05,27,17,07,16.70
2009,05,27,17,08,16.80
2009,05,27,17,09,16.80
2009,05,27,17,10,16.70
2009,05,27,17,11,16.70
2009,05,27,17,12,16.70
2009,05,27,17,13,16.70
2009,05,27,17,14,16.80
2009,05,27,17,15,16.80
2009,05,27,17,16,16.70
2009,05,27,17,17,16.70
2009,05,27,17,18,16.70
2009,05,27,17,19,16.70
2009,05,27,17,20,16.80
2009,05,27,17,21,16.80
2009,05,27,17,22,16.80
2009,05,27,17,23,16.70
2009,05,27,17,24,16.60
2009,05,27,17,25,16.50
2009,05,27,17,26,16.40
2009,05,27,17,27,16.40
2009,05,27,17,28,16.50
2009,05,27,17,29,16.50
2009,05,27,17,30,16.40
2009,05,27,17,31,16.40
2009,05,27,17,32,16.30
2009,05,27,17,33,16.30
2009,05,27,17,34,16.30
2009,05,27,17,35,16.30
2009,05,27,17,36,16.30
2009,05,27,17,37,16.20
2009,05,27,17,38,16.20
2009,05,27,17,39,16.20